EJU907T LIMC-LIBR

Flight info

Callsign EJU907T
Flight time 1h 17m
Altitude 35000
Route VAKON DCT IBUPU DCT NEVMO DCT LISKO DCT UVOKA L612 DOLON
Aircraft A320/M-SDE3FGHIRWY/LB1

Departure

Time 2026-05-06 08:09
Airport Milan Malpensa International Airport (LIMC)

Arrival

Time 2026-05-06 09:26
Airport Brindisi Airport (LIBR)
Time Latitude Longitude Altitude Speed Heading
2026-05-06 07:44 45.64198 8.72553 755 ft 0 kts 259°
2026-05-06 08:04 45.64163 8.72504 757 ft 17 kts 188°
2026-05-06 08:04 45.64004 8.72552 759 ft 27 kts 165°
2026-05-06 08:04 45.63822 8.72607 753 ft 27 kts 168°
2026-05-06 08:04 45.63628 8.72657 759 ft 29 kts 169°
2026-05-06 08:05 45.63424 8.72716 756 ft 31 kts 168°
2026-05-06 08:05 45.63207 8.72777 759 ft 33 kts 170°
2026-05-06 08:05 45.62978 8.72839 758 ft 34 kts 168°
2026-05-06 08:05 45.62747 8.72905 758 ft 33 kts 169°
2026-05-06 08:06 45.62529 8.72969 757 ft 31 kts 171°
2026-05-06 08:06 45.62324 8.73024 759 ft 29 kts 168°
2026-05-06 08:06 45.62117 8.73081 756 ft 32 kts 172°
2026-05-06 08:06 45.61897 8.73139 757 ft 31 kts 168°
2026-05-06 08:07 45.61722 8.73260 758 ft 26 kts 125°
2026-05-06 08:07 45.61624 8.73461 756 ft 23 kts 124°
2026-05-06 08:07 45.61596 8.73660 759 ft 20 kts 79°
2026-05-06 08:07 45.61691 8.73718 759 ft 9 kts 349°
2026-05-06 08:08 45.61734 8.73706 757 ft 5 kts 348°
2026-05-06 08:08 45.61912 8.73655 757 ft 61 kts 349°
2026-05-06 08:08 45.62539 8.73483 758 ft 120 kts 349°
2026-05-06 08:08 45.63523 8.73220 781 ft 164 kts 352°
2026-05-06 08:09 45.64604 8.72957 1392 ft 157 kts
2026-05-06 08:09 45.65571 8.73536 1890 ft 155 kts 52°
2026-05-06 08:09 45.66096 8.74931 2325 ft 168 kts 75°
2026-05-06 08:09 45.66705 8.76487 2687 ft 195 kts 47°
2026-05-06 08:10 45.67784 8.77741 3247 ft 203 kts 45°
2026-05-06 08:10 45.68896 8.79038 3797 ft 210 kts 45°
2026-05-06 08:10 45.70040 8.80384 4366 ft 217 kts 45°
2026-05-06 08:10 45.71215 8.81775 5038 ft 221 kts 47°
2026-05-06 08:11 45.72374 8.83303 5482 ft 234 kts 60°
2026-05-06 08:11 45.72811 8.85489 6034 ft 230 kts 101°
2026-05-06 08:11 45.72194 8.87540 6693 ft 226 kts 132°
2026-05-06 08:11 45.71191 8.89262 7397 ft 230 kts 131°
2026-05-06 08:12 45.70212 8.91086 8155 ft 233 kts 130°
2026-05-06 08:12 45.69240 8.92974 8896 ft 238 kts 130°
2026-05-06 08:12 45.68261 8.94901 9688 ft 242 kts 130°
2026-05-06 08:12 45.67265 8.96870 10393 ft 246 kts 130°
2026-05-06 08:13 45.66255 8.98865 11092 ft 250 kts 130°
2026-05-06 08:13 45.65231 9.00889 11803 ft 253 kts 129°
2026-05-06 08:13 45.64413 9.03167 12433 ft 266 kts 114°
2026-05-06 08:13 45.63907 9.05823 12633 ft 292 kts 109°
2026-05-06 08:14 45.63390 9.08743 12810 ft 315 kts 109°
2026-05-06 08:14 45.62835 9.11888 12966 ft 338 kts 109°
2026-05-06 08:14 45.62254 9.15209 13421 ft 349 kts 109°
2026-05-06 08:14 45.61665 9.18604 14006 ft 354 kts 109°
2026-05-06 08:15 45.61062 9.22038 14597 ft 358 kts 109°
2026-05-06 08:15 45.60450 9.25503 15212 ft 361 kts 109°
2026-05-06 08:15 45.59828 9.28999 15823 ft 365 kts 110°
2026-05-06 08:15 45.59195 9.32537 16411 ft 369 kts 110°
2026-05-06 08:16 45.58560 9.36067 16973 ft 373 kts 110°
2026-05-06 08:16 45.57950 9.39447 17693 ft 377 kts 110°
2026-05-06 08:16 45.57300 9.43051 18225 ft 380 kts 110°
2026-05-06 08:16 45.56854 9.45524 18574 ft 382 kts 110°
2026-05-06 08:17 45.55966 9.50425 19187 ft 388 kts 111°
2026-05-06 08:17 45.55305 9.54170 19639 ft 392 kts 110°
2026-05-06 08:17 45.54674 9.57977 20077 ft 397 kts 109°
2026-05-06 08:17 45.54056 9.61844 20518 ft 402 kts 109°
2026-05-06 08:18 45.53637 9.64485 20800 ft 404 kts 109°
2026-05-06 08:18 45.52806 9.69692 21339 ft 410 kts 109°
2026-05-06 08:18 45.52164 9.73669 21593 ft 414 kts 110°
2026-05-06 08:18 45.51720 9.76393 21878 ft 416 kts 110°
2026-05-06 08:19 45.51058 9.80420 22292 ft 419 kts 110°
2026-05-06 08:19 45.50385 9.84482 22724 ft 423 kts 110°
2026-05-06 08:19 45.49716 9.88513 23119 ft 426 kts 110°
2026-05-06 08:19 45.49028 9.92644 23503 ft 430 kts 110°
2026-05-06 08:20 45.48328 9.96799 23836 ft 432 kts 111°
2026-05-06 08:20 45.47353 10.00820 24171 ft 426 kts 121°
2026-05-06 08:20 45.45985 10.04524 24530 ft 422 kts 128°
2026-05-06 08:20 45.44507 10.08157 24881 ft 425 kts 128°
2026-05-06 08:21 45.43029 10.11804 25240 ft 427 kts 127°
2026-05-06 08:21 45.41545 10.15478 25574 ft 429 kts 127°
2026-05-06 08:21 45.40055 10.19165 25933 ft 430 kts 127°
2026-05-06 08:21 45.38556 10.22863 26274 ft 433 kts 127°
2026-05-06 08:22 45.37045 10.26581 26602 ft 435 kts 127°
2026-05-06 08:22 45.35522 10.30318 26927 ft 437 kts 127°
2026-05-06 08:22 45.33993 10.34067 27246 ft 440 kts 128°
2026-05-06 08:22 45.32456 10.37835 27574 ft 442 kts 128°
2026-05-06 08:23 45.30907 10.41631 27889 ft 445 kts 128°
2026-05-06 08:23 45.29352 10.45438 28173 ft 447 kts 128°
2026-05-06 08:23 45.27780 10.49274 28396 ft 451 kts 128°
2026-05-06 08:23 45.26199 10.53130 28668 ft 454 kts 128°
2026-05-06 08:24 45.24602 10.57022 28964 ft 456 kts 128°
2026-05-06 08:24 45.22994 10.60929 29258 ft 459 kts 128°
2026-05-06 08:24 45.21401 10.64799 29512 ft 461 kts 128°
2026-05-06 08:24 45.19774 10.68743 29791 ft 463 kts 128°
2026-05-06 08:25 45.18142 10.72689 30043 ft 465 kts 128°
2026-05-06 08:25 45.16500 10.76647 30265 ft 467 kts 128°
2026-05-06 08:25 45.14836 10.80602 30494 ft 468 kts 129°
2026-05-06 08:25 45.13146 10.84571 30706 ft 469 kts 129°
2026-05-06 08:26 45.11452 10.88524 30961 ft 470 kts 129°
2026-05-06 08:26 45.09757 10.92473 31294 ft 468 kts 129°
2026-05-06 08:26 45.08089 10.96364 31602 ft 468 kts 129°
2026-05-06 08:26 45.06401 11.00301 31938 ft 467 kts 129°
2026-05-06 08:27 45.04718 11.04223 32262 ft 466 kts 129°
2026-05-06 08:27 45.03038 11.08136 32578 ft 465 kts 129°
2026-05-06 08:27 45.01358 11.12052 32895 ft 464 kts 129°
2026-05-06 08:27 44.99685 11.15949 33221 ft 464 kts 129°
2026-05-06 08:28 44.98011 11.19831 33544 ft 463 kts 130°
2026-05-06 08:28 44.96334 11.23707 33856 ft 462 kts 130°
2026-05-06 08:28 44.94658 11.27578 34145 ft 461 kts 130°
2026-05-06 08:28 44.92984 11.31444 34414 ft 461 kts 130°
2026-05-06 08:29 44.91315 11.35295 34661 ft 460 kts 129°
2026-05-06 08:29 44.89641 11.39152 34863 ft 460 kts 130°
2026-05-06 08:29 44.86239 11.46705 34938 ft 453 kts 131°
2026-05-06 08:30 44.82761 11.54108 34940 ft 453 kts 131°
2026-05-06 08:30 44.79289 11.61485 34935 ft 454 kts 131°
2026-05-06 08:31 44.75825 11.68924 34939 ft 454 kts 131°
2026-05-06 08:31 44.72372 11.76369 34940 ft 454 kts 131°
2026-05-06 08:32 44.68905 11.83803 34923 ft 454 kts 131°
2026-05-06 08:32 44.65425 11.91219 34923 ft 455 kts 131°
2026-05-06 08:33 44.61933 11.98637 34922 ft 455 kts 131°
2026-05-06 08:33 44.58460 12.06010 34930 ft 456 kts 131°
2026-05-06 08:34 44.53197 12.17151 34912 ft 457 kts 130°
2026-05-06 08:35 44.49675 12.24567 34914 ft 457 kts 131°
2026-05-06 08:35 44.46150 12.31980 34932 ft 457 kts 131°
2026-05-06 08:36 44.42621 12.39391 34939 ft 457 kts 131°
2026-05-06 08:36 44.39086 12.46806 34917 ft 457 kts 130°
2026-05-06 08:37 44.35549 12.54185 34926 ft 457 kts 130°
2026-05-06 08:37 44.32004 12.61549 34936 ft 457 kts 130°
2026-05-06 08:38 44.28450 12.68931 34921 ft 457 kts 130°
2026-05-06 08:38 44.24928 12.76248 34928 ft 456 kts 130°
2026-05-06 08:39 44.21375 12.83603 34918 ft 457 kts 130°
2026-05-06 08:39 44.17812 12.90944 34923 ft 457 kts 130°
2026-05-06 08:40 44.14242 12.98271 34924 ft 457 kts 130°
2026-05-06 08:40 44.10664 13.05593 34926 ft 457 kts 130°
2026-05-06 08:41 44.07089 13.12911 34931 ft 457 kts 130°
2026-05-06 08:41 44.03507 13.20234 34917 ft 458 kts 130°
2026-05-06 08:42 43.99906 13.27547 34927 ft 458 kts 130°
2026-05-06 08:42 43.96301 13.34859 34932 ft 459 kts 130°
2026-05-06 08:43 43.92693 13.42173 34942 ft 459 kts 130°
2026-05-06 08:43 43.89094 13.49436 34946 ft 459 kts 130°
2026-05-06 08:44 43.85473 13.56738 34937 ft 459 kts 130°
2026-05-06 08:44 43.81845 13.64042 34944 ft 460 kts 130°
2026-05-06 08:45 43.78211 13.71336 34939 ft 460 kts 130°
2026-05-06 08:45 43.74567 13.78612 34958 ft 460 kts 130°
2026-05-06 08:46 43.70929 13.85881 34940 ft 459 kts 130°
2026-05-06 08:46 43.67290 13.93135 34962 ft 459 kts 130°
2026-05-06 08:47 43.63660 14.00317 34964 ft 458 kts 130°
2026-05-06 08:47 43.60005 14.07525 34972 ft 458 kts 130°
2026-05-06 08:48 43.56159 14.14467 34964 ft 450 kts 141°
2026-05-06 08:48 43.51676 14.20377 34953 ft 447 kts 142°
2026-05-06 08:49 43.47165 14.26269 34951 ft 447 kts 142°
2026-05-06 08:49 43.42656 14.32154 34959 ft 446 kts 142°
2026-05-06 08:50 43.38144 14.38012 34964 ft 446 kts 142°
2026-05-06 08:50 43.33620 14.43869 34966 ft 446 kts 142°
2026-05-06 08:51 43.29094 14.49720 34950 ft 446 kts 142°
2026-05-06 08:51 43.24595 14.55522 34961 ft 446 kts 142°
2026-05-06 08:52 43.20067 14.61369 34972 ft 447 kts 142°
2026-05-06 08:52 43.15534 14.67209 34972 ft 447 kts 142°
2026-05-06 08:53 43.10997 14.73036 34969 ft 447 kts 142°
2026-05-06 08:53 43.06484 14.78816 34964 ft 447 kts 142°
2026-05-06 08:54 43.01941 14.84618 34983 ft 446 kts 142°
2026-05-06 08:54 42.97403 14.90403 34977 ft 446 kts 142°
2026-05-06 08:55 42.92871 14.96176 34975 ft 445 kts 142°
2026-05-06 08:55 42.88334 15.01938 34983 ft 445 kts 142°
2026-05-06 08:56 42.83797 15.07686 34989 ft 445 kts 142°
2026-05-06 08:56 42.79267 15.13417 34983 ft 444 kts 141°
2026-05-06 08:57 42.74750 15.19124 34985 ft 443 kts 141°
2026-05-06 08:57 42.70256 15.24775 34987 ft 443 kts 142°
2026-05-06 08:58 42.65731 15.30464 34970 ft 443 kts 141°
2026-05-06 08:58 42.61204 15.36144 34976 ft 443 kts 142°
2026-05-06 08:59 42.56665 15.41822 34967 ft 443 kts 142°
2026-05-06 08:59 42.52127 15.47491 34972 ft 443 kts 142°
2026-05-06 09:00 42.47588 15.53148 34978 ft 444 kts 142°
2026-05-06 09:00 42.43037 15.58811 34982 ft 444 kts 142°
2026-05-06 09:01 42.38484 15.64463 34974 ft 444 kts 142°
2026-05-06 09:01 42.33926 15.70105 34968 ft 444 kts 142°
2026-05-06 09:02 42.29364 15.75746 34980 ft 444 kts 142°
2026-05-06 09:02 42.24830 15.81342 34990 ft 444 kts 142°
2026-05-06 09:03 42.20264 15.86955 34993 ft 444 kts 142°
2026-05-06 09:03 42.15696 15.92566 34998 ft 444 kts 142°
2026-05-06 09:04 42.11899 15.97225 35001 ft 444 kts 142°
2026-05-06 09:04 42.07335 16.02814 34983 ft 444 kts 142°
2026-05-06 09:05 42.02758 16.08404 34788 ft 444 kts 142°
2026-05-06 09:05 42.00472 16.11190 34237 ft 443 kts 142°
2026-05-06 09:05 41.98193 16.13967 33649 ft 440 kts 142°
2026-05-06 09:05 41.95936 16.16719 33105 ft 437 kts 142°
2026-05-06 09:06 41.93694 16.19449 32570 ft 433 kts 142°
2026-05-06 09:06 41.91441 16.22186 32051 ft 444 kts 142°
2026-05-06 09:06 41.89120 16.24992 31490 ft 452 kts 142°
2026-05-06 09:06 41.86782 16.27825 30933 ft 452 kts 142°
2026-05-06 09:07 41.84456 16.30649 30383 ft 450 kts 142°
2026-05-06 09:07 41.82113 16.33489 29793 ft 462 kts 142°
2026-05-06 09:07 41.79698 16.36401 29227 ft 470 kts 142°
2026-05-06 09:07 41.77295 16.39296 28686 ft 470 kts 142°
2026-05-06 09:08 41.74840 16.42258 28130 ft 471 kts 142°
2026-05-06 09:08 41.72387 16.45218 27586 ft 476 kts 142°
2026-05-06 09:08 41.69926 16.48186 27045 ft 474 kts 142°
2026-05-06 09:08 41.67492 16.51111 26527 ft 480 kts 142°
2026-05-06 09:09 41.65005 16.54094 26001 ft 481 kts 142°
2026-05-06 09:09 41.62489 16.57114 25435 ft 478 kts 142°
2026-05-06 09:09 41.60050 16.60041 24891 ft 475 kts 142°
2026-05-06 09:09 41.57576 16.63007 24319 ft 481 kts 142°
2026-05-06 09:10 41.55069 16.66010 23728 ft 488 kts 142°
2026-05-06 09:10 41.52533 16.69039 23058 ft 489 kts 141°
2026-05-06 09:10 41.50003 16.72057 22459 ft 486 kts 141°
2026-05-06 09:10 41.47491 16.75047 21857 ft 482 kts 141°
2026-05-06 09:11 41.44999 16.78010 21255 ft 477 kts 141°
2026-05-06 09:11 41.42536 16.80934 20672 ft 472 kts 141°
2026-05-06 09:11 41.40092 16.83834 20086 ft 468 kts 141°
2026-05-06 09:11 41.37717 16.86761 19516 ft 465 kts 135°
2026-05-06 09:12 41.35575 16.89968 18941 ft 461 kts 133°
2026-05-06 09:12 41.33467 16.93159 18396 ft 456 kts 133°
2026-05-06 09:12 41.31378 16.96321 17792 ft 452 kts 133°
2026-05-06 09:12 41.29315 16.99444 17261 ft 447 kts 133°
2026-05-06 09:13 41.27270 17.02533 16724 ft 443 kts 133°
2026-05-06 09:13 41.25238 17.05595 16194 ft 439 kts 133°
2026-05-06 09:13 41.23244 17.08592 15683 ft 436 kts 133°
2026-05-06 09:13 41.21247 17.11592 15168 ft 432 kts 133°
2026-05-06 09:14 41.19271 17.14560 14656 ft 428 kts 133°
2026-05-06 09:14 41.17304 17.17510 14148 ft 424 kts 133°
2026-05-06 09:14 41.15348 17.20424 13619 ft 420 kts 133°
2026-05-06 09:14 41.13405 17.23304 13103 ft 416 kts 133°
2026-05-06 09:15 41.11477 17.26154 12593 ft 414 kts 133°
2026-05-06 09:15 41.09561 17.28987 12096 ft 411 kts 133°
2026-05-06 09:15 41.07666 17.31791 11583 ft 401 kts 133°
2026-05-06 09:15 41.05879 17.34439 11350 ft 370 kts 134°
2026-05-06 09:16 41.04234 17.36881 11214 ft 341 kts 134°
2026-05-06 09:16 41.02712 17.39139 11094 ft 317 kts 134°
2026-05-06 09:16 41.01294 17.41240 10751 ft 304 kts 134°
2026-05-06 09:16 40.99890 17.43308 10248 ft 302 kts 134°
2026-05-06 09:17 40.98490 17.45366 9925 ft 299 kts 134°
2026-05-06 09:17 40.97087 17.47426 9596 ft 296 kts 134°
2026-05-06 09:17 40.95723 17.49434 9019 ft 292 kts 134°
2026-05-06 09:17 40.94384 17.51406 8378 ft 291 kts 134°
2026-05-06 09:18 40.93038 17.53385 7848 ft 289 kts 134°
2026-05-06 09:18 40.91699 17.55352 7472 ft 283 kts 134°
2026-05-06 09:18 40.90431 17.57221 7282 ft 264 kts 134°
2026-05-06 09:18 40.89220 17.59006 6852 ft 258 kts 134°
2026-05-06 09:19 40.88265 17.61029 6427 ft 264 kts 109°
2026-05-06 09:19 40.87789 17.63374 6045 ft 264 kts 106°
2026-05-06 09:19 40.87321 17.65713 5692 ft 263 kts 107°
2026-05-06 09:19 40.86851 17.68038 5354 ft 261 kts 107°
2026-05-06 09:20 40.86272 17.70296 4956 ft 256 kts 121°
2026-05-06 09:20 40.85234 17.72116 4618 ft 241 kts 141°
2026-05-06 09:20 40.83968 17.73442 4304 ft 230 kts 144°
2026-05-06 09:20 40.82730 17.74706 3996 ft 221 kts 145°
2026-05-06 09:21 40.81544 17.75923 3729 ft 212 kts 146°
2026-05-06 09:21 40.80396 17.77098 3447 ft 205 kts 145°
2026-05-06 09:21 40.79304 17.78217 3203 ft 192 kts 145°
2026-05-06 09:21 40.78332 17.79364 2933 ft 184 kts 141°
2026-05-06 09:22 40.77407 17.80499 2697 ft 179 kts 141°
2026-05-06 09:22 40.76516 17.81595 2485 ft 169 kts 141°
2026-05-06 09:22 40.75697 17.82607 2263 ft 156 kts 141°
2026-05-06 09:22 40.74911 17.83571 1964 ft 153 kts 141°
2026-05-06 09:23 40.74151 17.84502 1786 ft 143 kts 141°
2026-05-06 09:23 40.73467 17.85343 1623 ft 131 kts 141°
2026-05-06 09:23 40.72798 17.86163 1350 ft 129 kts 141°
2026-05-06 09:23 40.72146 17.86973 1069 ft 129 kts 141°
2026-05-06 09:24 40.71503 17.87795 922 ft 129 kts 139°
2026-05-06 09:24 40.70873 17.88614 796 ft 129 kts 141°
2026-05-06 09:24 40.70215 17.89424 707 ft 129 kts 143°
2026-05-06 09:24 40.69550 17.90223 587 ft 129 kts 143°
2026-05-06 09:25 40.68890 17.91033 421 ft 130 kts 145°
2026-05-06 09:25 40.68205 17.91810 268 ft 132 kts 142°
2026-05-06 09:25 40.67526 17.92644 98 ft 133 kts 143°
2026-05-06 09:25 40.66865 17.93438 40 ft 115 kts 137°
2026-05-06 09:26 40.66406 17.93997 42 ft 65 kts 137°
2026-05-06 09:26 40.66163 17.94289 40 ft 40 kts 136°
2026-05-06 09:26 40.65992 17.94497 39 ft 18 kts 137°
2026-05-06 09:26 40.65895 17.94483 40 ft 15 kts 233°
2026-05-06 09:27 40.65836 17.94377 43 ft 15 kts 233°
2026-05-06 09:27 40.65774 17.94269 51 ft 14 kts 235°
2026-05-06 09:27 40.65818 17.94189 44 ft 10 kts 322°
2026-05-06 09:27 40.65843 17.94163 44 ft 0 kts 322°
2026-05-06 09:28 40.65844 17.94163 44 ft 0 kts 322°